Location: Pandora
(40.9481°N, 83.9611°W)
Time: 00:48:02
(UTC-04:00)

Nauka - Pass Details

Date: 23 September 2021
Orbit: 417 x 423 km, 51.6° (Epoch: 19 October)

Event Time Altitude Azimuth Distance (km) Brightness Sun altitude
Rises 20:15:19 0° 277° (W) 2,357 ? -9.2°
Reaches altitude 10° 20:17:51 10° 297° (WNW) 1,496 ? -9.7°
Maximum altitude 20:20:17 18° 344° (NNW) 1,093 ? -10.2°
Drops below altitude 10° 20:22:44 10° 30° (NNE) 1,501 ? -10.6°
Enters shadow 20:24:11 - 44° (NE) 1,973 ? -10.9°
